Regional Weather Roundup
Issued by NWS Mobile, AL

Home | Current Version | Previous Version | Text Only | Print | Product List | Glossary On
Versions: 1 2 3 4 5 6 7 8 9 10 11 12 13 14 15 16 17 18 19 20 21 22 23 24 25 26 27
000
ASUS44 KMOB 280312
RWRMOB
REGIONAL WEATHER ROUNDUP
NATIONAL WEATHER SERVICE MOBILE AL
1000 PM CDT MON MAR 27 2017

NOTE: "FAIR" INDICATES FEW OR NO CLOUDS BELOW 12,000 FEET WITH NO
      SIGNIFICANT WEATHER AND/OR OBSTRUCTIONS TO VISIBILITY.

  * THESE STATIONS ARE PART OF THE UNIVERSITY OF SOUTH ALABAMA
    MESONET AND ARE NOT UNDER NWS OR FAA QUALITY CONTROL.

ALZ061>064-280400-
COASTAL ALABAMA

CITY           SKY/WX    TMP DP  RH WIND       PRES   REMARKS
MOBILE REG APT CLOUDY    70  66  87 S7        30.00R
BROOKLEY FIELD CLOUDY    73  70  90 S8        30.01R
USA CAMPUS*      N/A     70  66  88 CALM      30.00R
DOG RIVER*       N/A     70  68  94 S6        30.75R


CITY           SKY/WX    TMP DP  RH WIND       PRES   REMARKS
GULF SHORES    MOCLDY    69  69 100 S9        30.00R

$$

ALZ051>060-280400-
INTERIOR SOUTHWEST AND SOUTH CENTRAL ALABAMA

CITY           SKY/WX    TMP DP  RH WIND       PRES   REMARKS
GREENVILLE     CLEAR     69  59  70 S7        29.99S
EVERGREEN      PTCLDY    67  62  84 S6        30.01R
ATMORE*          N/A     68  68 100 S7        30.02R
ANDALUSIA/OPP  CLOUDY    70  63  78 CALM      30.01R
ANDALUSIA*       N/A     68  64  88 S6        30.01S
FLORALA APT    MOCLDY    68  64  87 SW7       30.03R
FLORALA*         N/A     66  66 100 CALM      30.73S

$$

FLZ001>006-280400-
WESTERN FLORIDA PANHANDLE

CITY           SKY/WX    TMP DP  RH WIND       PRES   REMARKS
PENSACOLA      MOCLDY    72  67  84 S12       30.00F
NAS PENSACOLA  MOCLDY    71  67  87 S9        30.00S
MILTON         CLOUDY    69  67  93 S10       30.01R
WHTNG S FIELD  CLOUDY    72  68  87 S7        30.01R


CITY           SKY/WX    TMP DP  RH WIND       PRES   REMARKS
JAY*             N/A     66  64  94 S6        30.02R
DUKE FIELD     MOCLDY    69  67  93 S9        30.00S
CRESTVIEW      CLOUDY    68  66  93 SW6       30.03R
VALPARAISO     MOCLDY    70  68  93 S8        30.01S
DESTIN         PTCLDY    73  72  96 S7        30.02R

$$

MSZ076-079-280400-
INTERIOR SOUTHEAST MISSISSIPPI

CITY           SKY/WX    TMP DP  RH WIND       PRES   REMARKS
LEAKESVILLE*     N/A     70  66  88 S6        29.98R
AGRICOLA*        N/A     68  68 100 CALM      29.98R

$$

MARINE OBSERVATIONS

STATION/POSITION TIME  TEMP    WIND        PRES    WAVE
                       AIR SEA DIR/SP/G            HT/PER
                 (UTC) (F)     (DEG/KT/KT) (MB)    (FT/S)
PASCAGOULA       0248   73     180/ 13/ 15 1015.6R
PETIT BOIS ISLND 0248   71     170/ 11/ 13 1016.4R
GRAND BAY        0145   73     180/ 12     1016.0S
KATRINA CUT      0200          170/ 12     1014.9
CEDAR POINT      0230   72     180/ 14     1015.6R
E DAUPHIN ISLAND 0200   71     160/ 12/ 13 1015.2R
MIDDLE BAY LIGHT 0200   71     160/ 15     1015.6
USCG MOBILE BAY  0248   72 74  200/  5/  8 1016.4R
STATE DOCKS      0248   72 68              1015.7R
MEAHER PARK      0230   71     160/  9     1015.9R
WEEKS BAY        0145   71                   N/A
FORT MORGAN      0248   71     180/ 12/ 14   N/A
12 S ORANGE BCH  0150   70 70  160/ 10/ 12 1015.6R   3/ 5
PENSACOLA BAY    0248   71 73  200/ 10/ 13 1016.2R
64 S DAUPHIN ISL 0250   73 73  160/ 12/ 14 1016.0R   3/ 5
67 S FORT MORGAN 0230   72     170/ 12     1016.3R

$$

SELECTED LOCATIONS ACROSS THE REGION

CITY           SKY/WX    TMP DP  RH WIND       PRES   REMARKS
NEW ORLEANS    MOCLDY    72  69  90 S7        29.97R
GULFPORT       MOCLDY    73  70  90 S8        29.98S
PASCAGOULA AP  CLOUDY    72  67  84 S6        29.99S
PASCAGOULA*    NOT AVBL
HATTIESBURG    PTCLDY    71  67  87 S9        29.97R
LAUREL         PTCLDY    70  66  88 S7        29.97R
MERIDIAN       TSTM      67  65  93 W5        29.96R
JACKSON        MOCLDY    66  64  93 S7        29.91R
MONTGOMERY     PTCLDY    73  58  59 S9        29.98R
TROY           MOCLDY    69  61  75 S9        30.01R
ASHFORD*         N/A     68  64  88 S6        30.01S
DOTHAN         MOCLDY    68  61  78 SW12      30.05R
PANAMA CITY    CLOUDY    69  66  90 S7        30.03R

$$





USA.gov is the U.S. government's official web portal to all federal, state and local government web resources and services.